Regional Weather Roundup
Issued by NWS Upton, NY

Current Version | Previous Version | Text Only | Print | Product List | Glossary On
Versions: 1 2 3 4 5 6 7 8 9 10 11 12 13 14 15 16 17 18 19 20 21 22 23 24 25 26 27 28 29 30 31 32 33 34 35 36 37 38 39 40 41 42 43 44 45 46 47 48 49 50
000
ASUS41 KOKX 050508
RWROKX

REGIONAL WEATHER ROUNDUP
NATIONAL WEATHER SERVICE NEW YORK NY
100 AM EDT TUE MAY 05 2015

NOTE: "FAIR" INDICATES FEW OR NO CLOUDS BELOW 12,000 FEET WITH NO
SIGNIFICANT WEATHER AND/OR OBSTRUCTIONS TO VISIBILITY.

NYZ071-072-176-178-NJZ106-104-050600-
NEW YORK CITY METRO AREA


CITY           SKY/WX    TMP DP  RH WIND       PRES   REMARKS
CENTRAL PARK   CLEAR     71  44  37 VRB7      30.19S
LAGUARDIA APRT PTCLDY    71  44  37 SW14      30.16R
KENNEDY INTL   PTCLDY    59  48  67 S6        30.18F
NEWARK/LIBERTY PTCLDY    71  45  39 SW14G24   30.16S
BRNX BOT. GARD   N/A     72  45  37 S5        30.18S
TETERBORO      CLEAR     71  44  37 SW12      30.15S
$$

NYZ177-179-078>081-050600-
LONG ISLAND NEW YORK

CITY           SKY/WX    TMP DP  RH WIND       PRES   REMARKS
FARMINGDALE    CLEAR     59  48  67 SW10      30.19S
ISLIP          CLEAR     61  46  57 SW15      30.17S
SHIRLEY        CLEAR     63  45  51 SW14G25   30.19S
WESTHAMPTON    CLEAR     58  45  62 SW15G24   30.20S
MONTAUK POINT    N/A     61  45  55 SW13G26   30.18F
$$

NYZ052-065-067-050600-
HUDSON VALLEY

CITY           SKY/WX    TMP DP  RH WIND       PRES   REMARKS
WHITE PLAINS   CLEAR     70  43  37 VRB6      30.16R
NEWBURGH       PTCLDY    73  46  38 SW8       30.14R
MONTGOMERY     MOCLDY    72  45  37 SW12      30.12R
POUGHKEEPSIE   MOCLDY    75  43  31 SW6       30.11R
ALBANY         CLOUDY    70  49  47 NW17      30.11R
$$

NJZ001-105-106-008-010-013-015-019>022-104-050600-
NEW JERSEY

CITY           SKY/WX    TMP DP  RH WIND       PRES   REMARKS
NEWARK/LIBERTY PTCLDY    71  45  39 SW14G24   30.16S
TETERBORO      CLEAR     71  44  37 SW12      30.15S
CALDWELL       CLEAR     69  44  40 SW6       30.16S
MORRISTOWN     CLEAR     68  43  40 SW5       30.16S
SOMERVILLE     CLEAR     60  46  59 CALM      30.16R
SUSSEX         PTCLDY    62  46  55 SW3       30.17R
ANDOVER          N/A     69  47  45 SW5       30.17R
TRENTON        CLEAR     66  47  50 SW8       30.18S
MILLVILLE      CLEAR     64  48  56 CALM      30.22R
ATLANTIC CITY  CLEAR     63  48  58 SW9       30.22S
WRIGHTSTOWN    CLEAR     64  45  49 SW10      30.17S
TOMS RIVER     CLEAR     66  45  45 SW10      30.21S
BELMAR         CLEAR     68  43  40 SW9       30.19F
$$

PAZ047>061-062-071-050600-
EASTERN PENNSYLVANIA

CITY           SKY/WX    TMP DP  RH WIND       PRES   REMARKS
PHILADELPHIA   PTCLDY    67  49  52 S8        30.20S
ALLENTOWN      CLEAR     63  49  60 CALM      30.17S
SCRANTON       MOCLDY    70  46  42 S3        30.16R
$$

CTZ002-004>006-009-010-012-RIZ004-006-007-MAZ004-011-015-050600-
SOUTHERN NEW ENGLAND
 IN CT

CITY           SKY/WX    TMP DP  RH WIND       PRES   REMARKS
BRADLEY INTL   PTCLDY    66  43  43 S9        30.11R
HARTFORD       PTCLDY    67  43  41 S8        30.12S
DANBURY        PTCLDY    69  41  36 SW13      30.15S
WTRBRY/OXFORD    N/A     66  43  42 SW7       30.16S
BRIDGEPORT     CLEAR     60  47  61 SW7       30.16R
MERIDEN        CLEAR     64  43  46 S5        30.15R
NEW HAVEN      CLEAR     60  45  57 SW9       30.15S
CHESTER        FAIR      64  43  45 SW10G17   30.17R
GROTON         CLEAR     57  44  62 CALM      30.16F
WILLIMANTIC    CLEAR     67  41  38 SW7       30.14R

 IN RI

CITY           SKY/WX    TMP DP  RH WIND       PRES   REMARKS
PROVIDENCE     CLEAR     65  41  41 SW15G25   30.14S
BLOCK ISLAND   CLEAR     54  45  71 SW20G26   30.17F
WESTERLY       CLEAR     56  45  66 SW7       30.18S

 IN MA

CITY           SKY/WX    TMP DP  RH WIND       PRES   REMARKS
BOSTON         CLEAR     67  41  38 SW16      30.07F
WORCESTER      PTCLDY    65  41  41 SW14      30.11S
WESTFIELD      PTCLDY    67  43  41 VRB3      30.11R
PROVINCETOWN   CLEAR     54  46  76 SW20G25   30.12F
NANTUCKET      CLEAR     54  50  86 SW14      30.19S
$$

ANZ330-335-338-340-345-350-353-355-050600-
COASTAL MARINE OBSERVATIONS


STATION/POSITION TIME  SKY/WX   TEMP    WIND        PRES    VSBY  WAVE
                                AIR SEA DIR/SP/G                  HT/PER
                 (UTC)          (F)     (DEG/KT/KT) (MB)    (MI)  (FT/S)
NY HARB ENTRANCE 0450            56 50  210/ 17/ 19 1021.5          4/ 5
4S FIRE IS       0403               49                N/A           5/ 5
20S FIRE ISLAND  0450            53 48  220/ 16/ 19 1022.6          4/ 5
GREAT SOUTH BAY  0400            58 60  240/ 17/ 23   N/A
23SW MTP         0450            52 47  230/ 16/ 17 1022.2          4/ 8
HUDSON CANYON    NOT AVBL
KINGS POINT      0400            63 48  200/  9/ 11 1020.9
EASTERN LI SOUND 0400            51     230/  8/ 10   N/A
ROBBINS REEF     0400            72     220/ 16/ 21 1020.3
$$


>>>>>>>>>>>>>>>>>>>>>>>>>>>> KEY <<<<<<<<<<<<<<<<<<<<<<<<<<<
>                                                          <
>     SKY/WX - SKY CONDITION/PRESENT WEATHER               <
>     TMP    - TEMPERATURE IN FAHRENHEIT                   <
>     DP     - DEWPOINT IN FAHRENHEIT                      <
>     RH     - RELATIVE HUMIDITY IN PERCENT                <
>     WIND   - DIRECTION AND SPEED IN MPH                  <
>     PRES   - MEAN SEA LEVEL PRESSURE IN INCHES OF HG     <
>     WCI    - WIND CHILL INDEX                            <
>     VSB    - VISIBILITY IN MILES                         <
>     HX     - HEAT INDEX                                  <
>     TC     - TEMPERATURE IN CELSIUS                      <
>     VRB    - VARIABLE WIND DIRECTION                     <
>                                                          <
>>>>>>>>>>>>>>>>>>>>>>>>>>>> KEY <<<<<<<<<<<<<<<<<<<<<<<<<<<





USA.gov is the U.S. government's official web portal to all federal, state and local government web resources and services.